sat.trackr.live / text

‹ back to catalog

STARLINK-4492

NORAD 53410 · 2022-097Y

PAYLOAD ACTIVE UNKNOWN

§ Identity

Operator
Country
US
Launch date
2022-08-10
Launch site
AFETR
Launch vehicle
Mass (kg)
RCS (m²)

Purposes: comms

External: N2YO · Heavens-Above · Gunter

§ Orbital elements

Epoch: 2026-09-20T04:00:03.000096Z

Period
94.59 min
Inclination
53.1596°
Eccentricity
0.0001816
Mean motion
15.22323017 rev/d
Perigee alt
497.6 km
Apogee alt
500.1 km
Semi-major
6,877.0 km
B*
2.1925e-3
RAAN
319.2111°
Arg perigee
98.3812°
Mean anomaly
35.6223°
Rev number
578

§ Raw data

STARLINK-44921 53410U 22097Y   26263.16670139  .00051213  00000+0  21925-2 0  99972 53410  53.1596 319.2111 0001816  98.3812  35.6223 15.22323017  5786

JSON: /api/v1/satellites/53410 · /tle

For live sub-satellite position, see the globe view (requires WebGL).

§ Visibility from observer

Set your observer location to see the next 7 days of passes ≥ 10°. The values pass through the URL so the page stays shareable.

No JS? Fill the form by hand. The geolocation button needs JavaScript.